Beaufort, NC

4:48 AM EDT on April 27, 2017 (GMT -0400)
Smith

Weather History for KMRH - April, 2013

Change the Weather History Date:

Tuesday, April 9, 2013

  Actual Average Record
Temperature  
Mean Temperature 66 °F -  
Max Temperature 73 °F 68 °F 88 °F (1965)
Min Temperature 60 °F 47 °F 30 °F (1972)
Cooling Degree Days 1    
Growing Degree Days 16 (Base 50)    
Moisture  
Dew Point 60 °F    
Average Humidity 83    
Maximum Humidity 93    
Minimum Humidity 70    
Precipitation  
Precipitation 0.00 in - - ()
Sea Level Pressure  
Sea Level Pressure 30.18 in    
Wind  
Wind Speed 10 mph (SSW)    
Max Wind Speed 17 mph    
Max Gust Speed -    
Visibility 10 miles    
Events      
Averages and records for this station are not official NWS values.
T = Trace of Precipitation, MM = Missing Value Source: NWS Daily Summary

Daily Weather History Graph

Daily Weather History Graph

Search for Another Location

Airport or City:

Trip Planner

Search our weather history database for the weather conditions in past years. The results will help you decide how hot, cold, wet, or windy it might be!

Date:

Astronomy

Apr. 09, 2013 Rise Set
Actual Time 6:42 AM EDT 7:34 PM EDT
Civil Twilight 6:16 AM EDT 8:00 PM EDT
Nautical Twilight 5:46 AM EDT 8:30 PM EDT
Astronomical Twilight 5:15 AM EDT 9:01 PM EDT
Moon 6:02 AM EDT (4/9) 7:07 PM EDT (4/9)
Length of Visible Light 13h 43m
Length of Day
12h 51m
Waning Crescent, 1% of the Moon is Illuminated
Apr 9
Waning Crescent
Apr 10
New
Apr 18
First Quarter
Apr 25
Full
May 2
Last Quarter

Hourly Weather History & Observations

Time (EDT) Temp. Dew Point Humidity Pressure Visibility Wind Dir Wind Speed Gust Speed Precip Events Conditions
12:58 AM 62.1 °F 59.0 °F 90% 30.18 in 10.0 mi South 6.9 mph - N/A   Clear
1:58 AM 62.1 °F 57.9 °F 86% 30.17 in 10.0 mi SSW 9.2 mph - N/A   Clear
2:58 AM 62.1 °F 57.9 °F 86% 30.16 in 10.0 mi SSW 6.9 mph - N/A   Clear
3:58 AM 60.1 °F 57.9 °F 93% 30.15 in 10.0 mi SSW 6.9 mph - N/A   Clear
4:58 AM 61.0 °F 57.9 °F 90% 30.17 in 10.0 mi SSW 8.1 mph - N/A   Clear
5:58 AM 61.0 °F 57.9 °F 90% 30.19 in 10.0 mi SSW 6.9 mph - N/A   Partly Cloudy
6:58 AM 60.1 °F 57.9 °F 93% 30.20 in 10.0 mi SSW 6.9 mph - N/A   Clear
7:58 AM 63.0 °F 60.1 °F 90% 30.22 in 10.0 mi SW 8.1 mph - N/A   Clear
8:58 AM 66.0 °F 60.1 °F 81% 30.22 in 10.0 mi WSW 10.4 mph - N/A   Clear
9:58 AM 69.1 °F 61.0 °F 75% 30.23 in 10.0 mi WSW 10.4 mph - N/A   Clear
10:58 AM 71.1 °F 61.0 °F 70% 30.24 in 10.0 mi SW 10.4 mph - N/A   Clear
11:58 AM 70.0 °F 62.1 °F 76% 30.23 in 10.0 mi SSW 10.4 mph - N/A   Clear
12:58 PM 71.1 °F 63.0 °F 75% 30.21 in 10.0 mi SSW 15.0 mph - N/A   Clear
1:58 PM 72.0 °F 63.0 °F 73% 30.19 in 10.0 mi SSW 12.7 mph - N/A   Clear
2:58 PM 72.0 °F 63.0 °F 73% 30.17 in 10.0 mi SSW 15.0 mph - N/A   Clear
3:58 PM 71.1 °F 62.1 °F 73% 30.15 in 10.0 mi SSW 16.1 mph - N/A   Clear
4:58 PM 71.1 °F 62.1 °F 73% 30.14 in 10.0 mi SSW 17.3 mph - N/A   Clear
5:58 PM 69.1 °F 61.0 °F 75% 30.14 in 10.0 mi SSW 17.3 mph - N/A   Clear
6:58 PM 66.9 °F 61.0 °F 81% 30.14 in 10.0 mi SSW 11.5 mph - N/A   Clear
7:58 PM 64.0 °F 60.1 °F 87% 30.15 in 10.0 mi SSW 11.5 mph - N/A   Clear
8:58 PM 64.0 °F 61.0 °F 90% 30.17 in 10.0 mi SSW 9.2 mph - N/A   Clear
9:58 PM 64.9 °F 61.0 °F 87% 30.17 in 10.0 mi SSW 12.7 mph - N/A   Clear
10:58 PM 64.0 °F 60.1 °F 87% 30.17 in 10.0 mi SSW 11.5 mph - N/A   Clear
11:58 PM 63.0 °F 60.1 °F 90% 30.16 in 10.0 mi SW 9.2 mph - N/A   Clear